TimeEST,TemperatureF,Dew PointF,Humidity,Sea Level PressureIn,VisibilityMPH,Wind Direction,Wind SpeedMPH,Gust SpeedMPH,PrecipitationIn,Events,Conditions,WindDirDegrees,DateUTC
12:16 AM,19.4,17.6,93,29.73,0.2,North,3.5,-,0.05,Fog-Snow,Snow,10,2013-02-09 05:16:00
12:54 AM,19.0,17.1,92,29.78,0.2,North,9.2,-,0.15,Fog-Snow,Snow,360,2013-02-09 05:54:00
1:03 AM,19.4,17.6,93,29.72,0.5,NNW,6.9,-,0.02,Fog-Snow,Snow,340,2013-02-09 06:03:00
1:21 AM,19.4,17.6,93,29.72,0.2,NW,5.8,-,0.06,Fog-Snow,Heavy Snow,320,2013-02-09 06:21:00
1:32 AM,19.4,17.6,93,29.73,0.5,NNW,10.4,-,0.08,Fog-Snow,Snow,340,2013-02-09 06:32:00
1:46 AM,19.4,15.8,86,29.73,0.5,NW,9.2,-,0.09,Fog-Snow,Snow,320,2013-02-09 06:46:00
1:54 AM,19.0,16.0,88,29.79,0.8,NNW,9.2,-,0.09,Snow,Light Snow,330,2013-02-09 06:54:00
2:54 AM,19.0,16.0,88,29.79,0.5,NW,11.5,24.2,0.04,Fog-Snow,Snow,320,2013-02-09 07:54:00
3:54 AM,18.0,14.0,84,29.80,0.8,NNW,13.8,20.7,0.01,Snow,Light Snow,330,2013-02-09 08:54:00
4:26 AM,17.6,12.2,79,29.74,0.8,NW,11.5,23.0,0.01,Snow,Light Snow,310,2013-02-09 09:26:00
4:33 AM,17.6,12.2,79,29.74,1.0,NW,10.4,19.6,0.01,Snow,Light Snow,320,2013-02-09 09:33:00
4:52 AM,17.6,12.2,79,29.75,1.2,NW,15.0,21.9,0.01,Snow,Light Snow,310,2013-02-09 09:52:00
4:54 AM,17.1,12.0,81,29.81,1.5,NW,12.7,21.9,0.01,Snow,Light Snow,310,2013-02-09 09:54:00
5:22 AM,15.8,10.4,79,29.76,2.5,NNW,9.2,20.7,0.00,Snow,Light Snow,330,2013-02-09 10:22:00
5:29 AM,15.8,10.4,79,29.76,3.0,NNW,11.5,24.2,0.00,Snow,Light Snow,330,2013-02-09 10:29:00
5:42 AM,15.8,8.6,73,29.77,2.0,NW,19.6,29.9,0.00,Snow,Light Snow,320,2013-02-09 10:42:00
5:51 AM,14.0,8.6,79,29.77,1.5,NNW,16.1,33.4,0.00,Snow,Light Snow,330,2013-02-09 10:51:00
5:54 AM,14.0,9.0,80,29.84,1.5,NNW,16.1,33.4,0.00,Snow,Light Snow,330,2013-02-09 10:54:00
6:25 AM,12.2,6.8,79,29.78,2.5,NW,17.3,28.8,0.00,Snow,Light Snow,310,2013-02-09 11:25:00
6:30 AM,12.2,6.8,79,29.79,3.0,NW,17.3,28.8,0.00,Snow,Light Snow,310,2013-02-09 11:30:00
6:54 AM,12.9,6.1,74,29.88,3.0,NW,20.7,29.9,0.00,Snow,Light Snow,320,2013-02-09 11:54:00
7:02 AM,12.2,6.8,79,29.81,3.0,NW,19.6,31.1,0.00,Snow,Light Snow,320,2013-02-09 12:02:00
7:35 AM,12.2,6.8,79,29.84,5.0,NNW,15.0,26.5,0.00,,Haze,330,2013-02-09 12:35:00
7:54 AM,12.0,5.0,73,29.93,3.0,NNW,19.6,29.9,0.00,Snow,Light Snow,330,2013-02-09 12:54:00
8:07 AM,12.2,5.0,73,29.86,1.2,NW,15.0,24.2,0.00,Snow,Light Snow,320,2013-02-09 13:07:00
8:19 AM,12.2,3.2,67,29.87,3.0,NNW,16.1,36.8,0.00,,Overcast,330,2013-02-09 13:19:00
8:54 AM,10.9,3.9,73,29.97,4.0,NNW,12.7,31.1,0.00,,Overcast,330,2013-02-09 13:54:00
9:07 AM,10.4,3.2,73,29.90,2.5,NNW,15.0,26.5,0.00,,Haze,330,2013-02-09 14:07:00
9:14 AM,10.4,3.2,73,29.90,3.0,North,17.3,28.8,0.00,,Overcast,350,2013-02-09 14:14:00
9:44 AM,10.4,3.2,73,29.91,1.8,NW,16.1,34.5,0.00,Snow,Blowing Snow,320,2013-02-09 14:44:00
9:49 AM,10.4,3.2,73,29.91,3.0,NW,18.4,35.7,0.00,Snow,Blowing Snow,310,2013-02-09 14:49:00
9:54 AM,10.9,3.0,70,29.99,4.0,NNW,23.0,35.7,0.00,Snow,Blowing Snow,330,2013-02-09 14:54:00
10:07 AM,10.4,1.4,67,29.92,2.0,NNW,23.0,35.7,N/A,Snow,Blowing Snow,330,2013-02-09 15:07:00
10:18 AM,10.4,1.4,67,29.93,5.0,NNW,21.9,32.2,N/A,Snow,Blowing Snow,330,2013-02-09 15:18:00
10:46 AM,12.2,1.4,62,29.95,4.0,NNW,23.0,38.0,N/A,Snow,Blowing Snow,330,2013-02-09 15:46:00
10:54 AM,12.9,1.9,62,30.02,4.0,NNW,17.3,38.0,N/A,Snow,Blowing Snow,340,2013-02-09 15:54:00
11:54 AM,12.9,-0.0,56,30.03,10.0,NW,12.7,25.3,N/A,,Mostly Cloudy,320,2013-02-09 16:54:00
12:54 PM,17.1,-0.9,45,30.04,10.0,NNW,17.3,29.9,N/A,,Clear,330,2013-02-09 17:54:00
1:54 PM,19.0,-2.9,38,30.06,10.0,NNW,15.0,23.0,N/A,,Clear,330,2013-02-09 18:54:00
2:54 PM,21.0,-2.9,35,30.07,10.0,NNW,12.7,31.1,N/A,,Clear,330,2013-02-09 19:54:00
3:54 PM,21.0,-2.0,36,30.09,10.0,NW,12.7,20.7,N/A,,Clear,320,2013-02-09 20:54:00
4:54 PM,19.9,-2.0,38,30.12,9.0,NW,15.0,25.3,N/A,,Clear,310,2013-02-09 21:54:00
5:54 PM,18.0,-2.0,41,30.17,10.0,NW,5.8,-,N/A,,Clear,320,2013-02-09 22:54:00
6:54 PM,15.1,-2.0,47,30.22,10.0,NW,13.8,20.7,N/A,,Clear,320,2013-02-09 23:54:00
7:54 PM,12.9,-2.9,49,30.25,10.0,WNW,9.2,18.4,N/A,,Clear,300,2013-02-10 00:54:00
8:54 PM,12.9,-4.0,47,30.28,10.0,NW,6.9,16.1,N/A,,Clear,310,2013-02-10 01:54:00
9:54 PM,12.9,-4.0,47,30.29,10.0,NW,16.1,21.9,N/A,,Clear,310,2013-02-10 02:54:00
10:54 PM,12.9,-4.0,47,30.31,10.0,NW,17.3,31.1,N/A,,Clear,320,2013-02-10 03:54:00
11:54 PM,10.9,-2.9,54,30.33,10.0,NW,10.4,19.6,N/A,,Clear,310,2013-02-10 04:54:00